Date String (YYYY-MM-DD hh:mm:ss) UTC,Instrument flags,Ambient pressure (hPa),Sample flow (lpm),Bypass flow (lpm),Sample temperature (°C),Ambient temperature (°C),ASC tube jacket temperature (°C),LED temperature (°C),Box temperature (°C),Sample RH (%),Span deviation,Mass concentration (μg/m³),Mass concentration (μg/m³),Mass concentration (μg/m³)
DateTimeUTC,F1_M11,P_M11,Q1_M11,Q2_M11,T1_M11,T2_M11,T3_M11,T4_M11,T5_M11,U1_M11,ZSPAN_M11,X0_M11,X2_M11,X1_M11
2021-10-12 19:00:00,,0814.8,5.01,0.00,28.2,27.3,00.0,37.3,29.9,17.6,0001.4,0020.08,0007.24,0005.63
2021-10-12 19:01:00,,0815.0,4.99,0.00,28.2,27.3,00.0,37.3,29.9,17.6,0001.3,0019.75,0007.24,0005.62
2021-10-12 19:02:00,,0814.7,5.00,0.00,28.2,27.3,00.0,37.3,29.9,17.7,0001.0,0019.50,0007.18,0005.60
2021-10-12 19:03:00,,0814.8,5.01,0.00,28.2,27.3,00.0,37.3,29.9,17.7,0000.7,0020.18,0007.19,0005.60
2021-10-12 19:04:00,,0814.7,5.00,0.00,28.2,27.3,00.0,37.3,29.9,17.6,0000.6,0019.05,0007.15,0005.61
2021-10-12 19:05:00,,0814.9,5.00,0.00,28.2,27.3,00.0,37.3,29.9,17.5,0000.5,0018.01,0007.13,0005.62
2021-10-12 19:06:00,,0815.1,4.99,0.00,28.2,27.3,00.0,37.3,29.9,17.5,0000.0,0017.93,0007.16,0005.63
2021-10-12 19:07:00,,0815.1,5.01,0.00,28.2,27.4,00.0,37.3,29.9,17.6,0000.2,0017.88,0007.17,0005.63
2021-10-12 19:08:00,,0815.2,4.99,0.00,28.2,27.4,00.0,37.3,30.0,17.6,0000.5,0017.74,0007.19,0005.64
2021-10-12 19:09:00,,0814.8,4.99,0.00,28.2,27.4,00.0,37.3,30.0,17.7,0000.4,0017.10,0007.22,0005.66
2021-10-12 19:10:00,,0814.7,5.00,0.00,28.2,27.4,00.0,37.3,30.0,17.6,0000.3,0016.72,0007.25,0005.67
2021-10-12 19:11:00,,0815.1,5.00,0.00,28.2,27.4,00.0,37.3,30.0,17.7,-000.1,0016.42,0007.25,0005.67
2021-10-12 19:12:00,,0815.0,5.00,0.00,28.2,27.4,00.0,37.3,30.0,17.6,-000.2,0016.37,0007.23,0005.67
2021-10-12 19:13:00,,0815.0,5.00,0.00,28.2,27.4,00.0,37.3,30.0,17.6,-000.1,0016.67,0007.21,0005.68
2021-10-12 19:14:00,,0814.9,4.99,0.00,28.2,27.4,00.0,37.3,30.0,17.5,0000.2,0015.76,0007.21,0005.69
2021-10-12 19:15:00,,0815.1,5.01,0.00,28.2,27.3,00.0,37.3,30.0,17.6,0000.2,0015.98,0007.21,0005.69
2021-10-12 19:16:00,,0815.0,4.99,0.00,28.2,27.3,00.0,37.3,29.9,17.7,0000.3,0016.79,0007.23,0005.66
2021-10-12 19:17:00,,0814.9,5.00,0.00,28.2,27.3,00.0,37.3,29.9,17.8,0000.3,0016.93,0007.22,0005.66
2021-10-12 19:18:00,,0814.7,5.02,0.00,28.2,27.3,00.0,37.3,29.9,17.7,0000.2,0016.80,0007.21,0005.66
2021-10-12 19:19:00,,0814.9,4.98,0.00,28.1,27.3,00.0,37.3,29.9,17.7,0000.1,0017.09,0007.21,0005.65
2021-10-12 19:20:00,,0815.0,5.00,0.00,28.1,27.3,00.0,37.3,29.9,17.7,-000.4,0016.77,0007.20,0005.63
2021-10-12 19:21:00,,0815.1,5.01,0.00,28.2,27.3,00.0,37.3,29.9,17.7,-000.0,0016.40,0007.11,0005.61
2021-10-12 19:22:00,,0815.1,5.00,0.00,28.1,27.3,00.0,37.3,29.9,17.7,0000.3,0016.49,0007.08,0005.60
2021-10-12 19:23:00,,0814.9,4.98,0.00,28.1,27.3,00.0,37.3,29.8,17.7,0000.7,0017.15,0007.10,0005.60
2021-10-12 19:24:00,,0814.9,5.01,0.00,28.1,27.3,00.0,37.3,29.8,17.7,0000.9,0017.37,0007.14,0005.61
2021-10-12 19:25:00,,0815.1,4.99,0.00,28.1,27.2,00.0,37.3,29.8,17.6,0000.9,0017.80,0007.18,0005.62
2021-10-12 19:26:00,,0815.0,5.00,0.00,28.1,27.2,00.0,37.3,29.8,17.6,0000.5,0017.50,0007.18,0005.61
2021-10-12 19:27:00,,0814.6,5.00,0.00,28.1,27.2,00.0,37.3,29.8,17.6,0000.6,0016.93,0007.17,0005.62
2021-10-12 19:28:00,,0814.5,5.00,0.00,28.1,27.2,00.0,37.3,29.8,17.6,0000.7,0017.59,0007.17,0005.63
2021-10-12 19:29:00,,0814.4,5.02,0.00,28.0,27.2,00.0,37.2,29.7,17.6,0001.0,0017.82,0007.15,0005.61
2021-10-12 19:30:00,,0814.4,4.99,0.00,28.0,27.2,00.0,37.2,29.8,17.6,0000.4,0016.96,0007.09,0005.60
2021-10-12 19:31:00,,0814.4,5.00,0.00,28.0,27.2,00.0,37.2,29.8,17.7,0000.5,0017.21,0007.08,0005.61
2021-10-12 19:32:00,,0814.4,5.01,0.00,28.1,27.2,00.0,37.2,29.8,17.7,0000.6,0017.22,0007.14,0005.62
2021-10-12 19:33:00,,0814.5,5.00,0.00,28.1,27.2,00.0,37.2,29.8,17.7,0001.0,0017.84,0007.18,0005.63
2021-10-12 19:34:00,,0814.4,4.98,0.00,28.1,27.2,00.0,37.2,29.8,17.7,0000.9,0017.61,0007.15,0005.64
2021-10-12 19:35:00,,0814.4,5.00,0.00,28.1,27.2,00.0,37.2,29.9,17.6,0001.3,0016.89,0007.15,0005.65
2021-10-12 19:36:00,,0814.4,5.01,0.00,28.1,27.2,00.0,37.2,29.8,17.6,0001.6,0016.59,0007.13,0005.64
2021-10-12 19:37:00,,0814.3,5.00,0.00,28.1,27.2,00.0,37.2,29.8,17.6,0001.5,0016.65,0007.10,0005.63
2021-10-12 19:38:00,,0814.3,5.00,0.00,28.0,27.3,00.0,37.2,29.8,17.6,0001.8,0016.47,0007.09,0005.65
2021-10-12 19:39:00,,0814.5,4.99,0.00,28.1,27.3,00.0,37.2,29.8,17.6,0001.9,0015.79,0007.07,0005.64
2021-10-12 19:40:00,,0814.5,5.00,0.00,28.0,27.3,00.0,37.2,29.8,17.6,0001.8,0015.86,0007.10,0005.67
2021-10-12 19:41:00,,0814.5,4.98,0.00,28.0,27.2,00.0,37.2,29.8,17.6,0001.9,0016.54,0007.13,0005.69
2021-10-12 19:42:00,,0814.4,5.01,0.00,28.0,27.2,00.0,37.2,29.8,17.6,0002.0,0016.71,0007.16,0005.69
2021-10-12 19:43:00,,0814.4,4.99,0.00,28.0,27.2,00.0,37.2,29.8,17.7,0001.7,0017.13,0007.14,0005.69
2021-10-12 19:44:00,,0814.3,5.00,0.00,28.0,27.2,00.0,37.2,29.7,17.7,0001.5,0016.79,0007.08,0005.68
2021-10-12 19:45:00,,0814.2,4.99,0.00,28.0,27.2,00.0,37.2,29.7,17.8,0001.6,0017.32,0007.04,0005.66
2021-10-12 19:46:00,,0814.2,5.00,0.00,28.0,27.2,00.0,37.2,29.8,17.8,0001.2,0018.28,0007.04,0005.63
2021-10-12 19:47:00,,0814.3,5.00,0.00,28.0,27.2,00.0,37.1,29.8,17.8,0001.0,0018.11,0007.00,0005.62
2021-10-12 19:48:00,,0814.1,5.01,0.00,28.0,27.2,00.0,37.1,29.8,17.8,0001.0,0018.44,0007.01,0005.61
2021-10-12 19:49:00,,0814.3,4.99,0.00,28.0,27.2,00.0,37.1,29.8,17.7,0000.5,0019.22,0007.09,0005.62
2021-10-12 19:50:00,,0814.3,5.00,0.00,28.0,27.2,00.0,37.2,29.8,17.7,0000.0,0019.55,0007.12,0005.62
2021-10-12 19:51:00,,0814.4,5.00,0.00,28.0,27.2,00.0,37.2,29.8,17.7,-000.0,0018.88,0007.09,0005.60
2021-10-12 19:52:00,,0814.2,5.01,0.00,28.1,27.2,00.0,37.2,29.8,17.6,0000.3,0018.45,0007.12,0005.60
2021-10-12 19:53:00,,0814.1,5.00,0.00,28.1,27.3,00.0,37.2,29.8,17.5,0000.3,0018.05,0007.12,0005.63
2021-10-12 19:54:00,,0814.2,4.99,0.00,28.1,27.3,00.0,37.2,29.9,17.5,0000.5,0018.15,0007.14,0005.64
2021-10-12 19:55:00,,0814.3,5.00,0.00,28.1,27.3,00.0,37.2,29.9,17.5,0000.3,0017.41,0007.14,0005.68
2021-10-12 19:56:00,,0814.2,5.00,0.00,28.1,27.3,00.0,37.2,29.9,17.4,0000.6,0017.00,0007.21,0005.73
2021-10-12 19:57:00,,0814.1,5.00,0.00,28.1,27.3,00.0,37.2,29.9,17.6,0000.9,0015.80,0007.21,0005.76
2021-10-12 19:58:00,,0814.2,5.01,0.00,28.1,27.4,00.0,37.2,29.9,17.6,0000.9,0015.70,0007.23,0005.79
2021-10-12 19:59:00,,0814.2,5.00,0.00,28.2,27.4,00.0,37.2,29.9,17.9,0001.0,0015.52,0007.19,0005.81
